Location: Cuiry
(49.3858°N, 3.7708°E)
Time: 00:49:02
(UTC+00:00)

Cosmos 1821 Rocket - Pass Details

Date: 12 January 2026
Orbit: 943 x 1004 km, 82.9° (Epoch: 18 February)

Event Time Altitude Azimuth Distance (km) Brightness Sun altitude
Rises 17:14:07 0° 354° (N) 3,697 6.9 -10.1°
Reaches altitude 10° 17:16:53 10° 3° (N) 2,735 6.1 -10.5°
Maximum altitude 17:22:39 38° 70° (ENE) 1,445 4.4 -11.4°
Drops below altitude 10° 17:28:19 10° 138° (SE) 2,681 6.1 -12.3°
Sets 17:30:59 0° 146° (SE) 3,615 6.8 -12.7°
